Location: Austin
(30.3000°N, 97.7500°W)
Time: 10:42:17
(UTC-05:00)

NOSS 3-4 (C) - Pass Details

Date: 03 April 2024
Orbit: 809 x 1402 km, 63.4° (Epoch: 05 March)

Event Time Altitude Azimuth Distance (km) Brightness Sun altitude
Exits shadow 05:02:12 68° 360° (N) 878 3.2 -28.7°
Drops below altitude 10° 05:07:14 10° 26° (NNE) 2,492 6.3 -27.7°
Sets 05:09:48 0° 28° (NNE) 3,491 7.2 -27.2°
